Air Force Academy, CO

10:53 AM MST on November 15, 2019 (GMT -0700)
Usaf Academy

Weather History for KAFF - May, 2019

Change the Weather History Date:

Monday, May 20, 2019

  Actual Average Record
Temperature  
Mean Temperature 38 °F -  
Max Temperature 45 °F 66 °F 84 °F (2005)
Min Temperature 32 °F 40 °F 27 °F (2017)
Degree Days  
Heating Degree Days 26    
Moisture  
Dew Point 35 °F    
Average Humidity 93    
Maximum Humidity 100    
Minimum Humidity 71    
Precipitation  
Precipitation 0.33 in - - ()
Sea Level Pressure  
Sea Level Pressure 29.76 in    
Wind  
Wind Speed 10 mph (NNW)    
Max Wind Speed 20 mph    
Max Gust Speed 21 mph    
Visibility 6 miles    
Events Rain , Snow , Thunderstorm    
Averages and records for this station are not official NWS values.
T = Trace of Precipitation, MM = Missing Value Source: NWS Daily Summary

Daily Weather History Graph

Daily Weather History Graph

Search for Another Location

Airport or City:

Astronomy

May. 20, 2019 Rise Set
Actual Time 5:42 AM MDT 8:09 PM MDT
Civil Twilight 5:12 AM MDT 8:40 PM MDT
Nautical Twilight 4:34 AM MDT 9:17 PM MDT
Astronomical Twilight 3:52 AM MDT 9:59 PM MDT
Moon 10:12 PM MDT (5/20) 7:12 AM MDT (5/20)
Length of Visible Light 15h 27m
Length of Day
14h 26m
Waning Gibbous, 96% of the Moon is Illuminated
May 20
Waning Gibbous
May 26
Last Quarter
Jun 3
New
Jun 10
First Quarter
Jun 17
Full

Hourly Weather History & Observations

Time (MDT) Temp. Windchill Dew Point Humidity Pressure Visibility Wind Dir Wind Speed Gust Speed Precip Events Conditions
12:28 AM 42.8 °F 39.3 °F 35.6 °F 76% 29.82 in 10.0 mi NNW 5.8 mph - N/A   Overcast
12:58 AM 43.7 °F 40.3 °F 35.2 °F 72% 29.78 in 10.0 mi North 5.8 mph - N/A   Overcast
1:13 AM 42.8 °F 40.1 °F 35.6 °F 76% 29.80 in 10.0 mi North 4.6 mph - N/A   Overcast
1:28 AM 44.6 °F 43.1 °F 35.6 °F 71% 29.77 in 10.0 mi NNW 3.5 mph - N/A   Overcast
1:47 AM 44.6 °F 42.2 °F 35.6 °F 71% 29.77 in 10.0 mi NNW 4.6 mph - N/A   Overcast
1:58 AM 44.2 °F 41.8 °F 36.1 °F 73% 29.77 in 10.0 mi NNW 4.6 mph - N/A   Overcast
2:58 AM 45.1 °F 43.7 °F 39.9 °F 82% 29.75 in 10.0 mi NNE 3.5 mph - N/A   Overcast
3:14 AM 44.6 °F 41.4 °F 41.0 °F 87% 29.75 in 10.0 mi NNW 5.8 mph - N/A Rain Light Rain
3:58 AM 43.0 °F 37.7 °F 38.8 °F 85% 29.75 in 10.0 mi NNW 9.2 mph - 0.00 in Rain Light Rain
4:21 AM 41.0 °F 33.9 °F 41.0 °F 100% 29.73 in 10.0 mi NW 12.7 mph - N/A   Overcast
4:58 AM 39.4 °F 31.1 °F 38.8 °F 98% 29.73 in 10.0 mi North 15.0 mph - 0.00 in   Overcast
5:28 AM 39.2 °F 32.0 °F 37.4 °F 93% 29.75 in 10.0 mi North 11.5 mph - N/A   Overcast
5:58 AM 37.8 °F 29.4 °F 37.6 °F 99% 29.77 in 10.0 mi NNW 13.8 mph - N/A   Overcast
6:58 AM 37.0 °F 28.9 °F 36.9 °F 99% 29.78 in 10.0 mi NNW 12.7 mph - N/A   Overcast
7:17 AM 37.4 °F 29.3 °F 35.6 °F 93% 29.77 in 10.0 mi NNW 12.7 mph - N/A   Light Drizzle
7:27 AM 37.4 °F 29.3 °F 35.6 °F 93% 29.77 in 10.0 mi NNW 12.7 mph - N/A   Overcast
7:57 AM 37.4 °F 28.2 °F 35.6 °F 93% 29.77 in 10.0 mi NNW 16.1 mph - N/A   Overcast
7:58 AM 36.5 °F 27.4 °F 35.4 °F 96% 29.77 in 10.0 mi NNW 15.0 mph - 0.00 in   Overcast
8:28 AM 37.4 °F 29.3 °F 35.6 °F 93% 29.77 in 10.0 mi NNW 12.7 mph - N/A   Overcast
8:41 AM 37.4 °F 29.3 °F 33.8 °F 87% 29.77 in 10.0 mi North 12.7 mph - N/A   Light Ice Pellets
8:48 AM 37.4 °F 29.8 °F 33.8 °F 87% 29.77 in 10.0 mi North 11.5 mph - N/A Rain Light Rain
8:58 AM 36.7 °F 28.0 °F 34.3 °F 91% 29.77 in 10.0 mi North 13.8 mph - 0.00 in Rain Light Rain
9:58 AM 36.5 °F 28.7 °F 34.3 °F 92% 29.79 in 4.0 mi NNW 11.5 mph - 0.00 in Snow Light Snow Grains
10:13 AM 35.6 °F 26.6 °F 33.8 °F 93% 29.81 in 4.0 mi NNW 13.8 mph - N/A Rain , Snow Light Rain
10:58 AM 33.8 °F 26.4 °F 33.6 °F 99% 29.82 in 4.0 mi NNW 9.2 mph - 0.03 in Rain , Snow Light Rain
11:34 AM 33.8 °F 24.8 °F 33.8 °F 100% 29.81 in 1.5 mi North 12.7 mph - N/A Snow Light Snow
11:58 AM 33.1 °F 24.9 °F 32.9 °F 99% 29.78 in 2.0 mi North 10.4 mph - 0.03 in Snow Light Snow
12:56 PM 34.9 °F 27.1 °F 34.7 °F 99% 29.77 in 4.0 mi NNW 10.4 mph - 0.08 in Snow Light Snow
1:18 PM 35.6 °F 26.2 °F 35.6 °F 100% 29.77 in 10.0 mi North 15.0 mph - N/A Rain , Thunderstorm Light Rain
1:35 PM 37.4 °F 28.2 °F 37.4 °F 100% 29.74 in 10.0 mi North 16.1 mph - N/A Rain Light Rain
1:42 PM 37.4 °F 27.8 °F 37.4 °F 100% 29.73 in 10.0 mi North 17.3 mph - N/A   Overcast
1:56 PM 39.4 °F 30.4 °F 37.0 °F 91% 29.72 in 10.0 mi North 17.3 mph - 0.03 in   Overcast
2:41 PM 39.2 °F 29.6 °F 33.8 °F 81% 29.70 in 10.0 mi NNW 19.6 mph - N/A   Overcast
2:56 PM 40.1 °F 31.6 °F 34.3 °F 80% 29.70 in 10.0 mi North 16.1 mph - N/A   Overcast
3:56 PM 39.4 °F 30.7 °F 33.8 °F 80% 29.69 in 10.0 mi NNW 16.1 mph 20.7 mph N/A   Overcast
4:07 PM 39.2 °F 30.5 °F 33.8 °F 81% 29.69 in 2.0 mi North 16.1 mph - N/A Rain Light Rain
4:52 PM 35.6 °F 26.2 °F 35.6 °F 100% 29.72 in 1.5 mi North 15.0 mph 19.6 mph N/A Rain , Snow Light Rain
4:58 PM 36.0 °F 27.1 °F 35.8 °F 99% 29.72 in 1.5 mi North 13.8 mph - 0.05 in Rain , Snow Light Rain
5:58 PM 33.6 °F 25.6 °F 33.4 °F 99% 29.73 in 1.5 mi North 10.4 mph - 0.06 in Rain , Snow Light Rain
6:14 PM 33.8 °F 24.8 °F 33.8 °F 100% 29.73 in 2.0 mi North 12.7 mph - N/A Snow Light Snow
6:58 PM 33.4 °F 26.6 °F 33.3 °F 99% 29.74 in 1.5 mi North 8.1 mph - 0.05 in Snow Light Snow
7:58 PM 32.5 °F 23.2 °F 32.4 °F 99% 29.77 in 0.6 mi North 12.7 mph - 0.00 in Snow Snow
8:38 PM 32.0 °F 23.0 °F 32.0 °F 100% 29.76 in 1.1 mi North 11.5 mph - N/A Snow Light Snow
8:58 PM 32.5 °F 23.7 °F 32.5 °F 100% 29.76 in 1.5 mi North 11.5 mph - 0.00 in Snow Light Snow
9:13 PM 32.0 °F 23.0 °F 32.0 °F 100% 29.76 in 2.5 mi NNW 11.5 mph - N/A Snow Light Snow
9:28 PM 32.0 °F 22.5 °F 32.0 °F 100% 29.76 in 3.0 mi North 12.7 mph - N/A Snow Light Snow
9:43 PM 32.0 °F 23.0 °F 32.0 °F 100% 29.76 in 4.0 mi NNW 11.5 mph - N/A Snow Light Snow
9:58 PM 32.7 °F 23.9 °F 32.7 °F 100% 29.77 in 4.0 mi NNW 11.5 mph - 0.00 in Snow Light Snow
10:13 PM 32.0 °F 24.2 °F 32.0 °F 100% 29.78 in 4.0 mi NNW 9.2 mph - N/A Snow Light Snow
10:43 PM 32.0 °F 22.1 °F 32.0 °F 100% 29.76 in 2.2 mi NNW 13.8 mph - N/A Snow Light Snow
10:56 PM 32.0 °F 22.1 °F 32.0 °F 100% 29.75 in 1.5 mi North 13.8 mph - N/A Snow Light Snow
10:58 PM 32.4 °F 22.1 °F 32.2 °F 99% 29.75 in 1.5 mi North 15.0 mph - 0.00 in Snow Light Snow
11:13 PM 32.0 °F 21.2 °F 32.0 °F 100% 29.74 in 2.8 mi North 16.1 mph - N/A Snow Light Snow
11:28 PM 32.0 °F 21.2 °F 32.0 °F 100% 29.72 in 4.0 mi North 16.1 mph - N/A Snow Light Snow
11:43 PM 32.0 °F 21.6 °F 32.0 °F 100% 29.73 in 4.0 mi North 15.0 mph - N/A Snow Light Snow
11:58 PM 32.0 °F 21.6 °F 31.8 °F 99% 29.73 in 5.0 mi NNW 15.0 mph - 0.00 in Snow Light Snow